User: anonymous   Login
Location: Marcé
(47.5801°N, 0.3280°W)
Time: 15:29:33
(UTC+01:00)
Language:

Explorer 7 - Orbit

View from above orbital plane
View from above orbital plane
View from above satellite
View from above satellite

Ground track
Ground track

The orbit data is extracted from the following two-line orbital elements,

1 00022U 59009A   21342.88557655  .00000824  00000-0  82958-4 0  9998
2 00022  50.2841  89.7707 0137752 160.7819 199.8397 14.95935125551091
Epoch (UTC): 08 December 2021 21:15:13
Eccentricity: 0.0137752
inclination: 50.2841°
perigee height: 483 km
apogee height: 675 km
right ascension of ascending node: 89.7707°
argument of perigee: 160.7819°
revolutions per day: 14.95935125
mean anomaly at epoch: 199.8397°
orbit number at epoch: 55109

The dashed part of the orbit path shows where the satellite is in the earth's shadow,  

DLR